Regional Weather Roundup
Issued by NWS

Home | Current Version | Previous Version | Text Only | Print | Product List | Glossary On
Versions: 1 2 3 4 5 6 7 8 9 10 11 12 13 14 15 16 17 18 19 20 21 22 23 24 25 26 27 28 29 30 31 32 33 34 35 36 37 38 39 40 41 42 43 44 45 46 47 48
000
ASPQ40 PGUM 270412
RWRPQ
WEATHER ROUNDUP FOR THE MARIANAS AND MICRONESIA
NATIONAL WEATHER SERVICE TIYAN GU
200 PM CHST THU NOV 27 2014

GUZ001>004-270500-
MARIANA ISLANDS-

CITY           SKY/WX    TMP DP  RH WIND       PRES   REMARKS
GUAM AIRPORT   PTSUNNY   90  75  62 NE18G28   29.83F HX 100
ANDERSEN AFB   PTSUNNY   86  75  70 NE21      29.83F HX  95
ROTA AIRPORT   MOSUNNY   84  75  74 NE16      29.84F HX  92
TINIAN AP      MOSUNNY   86  75  70 E20       29.83F HX  95
SAIPAN AP      MOSUNNY   86  73  66 E16       29.84F HX  93

$$

PMZ161-270500-
REPUBLIC OF PALAU-

CITY           SKY/WX    TMP DP  RH WIND       PRES   REMARKS
KOROR AP       PTSUNNY   88  77  70 NE17G23   29.76  HX 100
KOROR WSO      PTSUNNY   88  75  66 NE12      29.75F HX  97

$$

PMZ171>174-270500-
FEDERATED STATES OF MICRONESIA-

CITY           SKY/WX    TMP DP  RH WIND       PRES   REMARKS
YAP AIRPORT    CLOUDY    86  79  79 NE17G28   29.74F HX  99
CHUUK AP       CLOUDY    84  81  89 E8        29.69F HX  98
POHNPEI AP     CLOUDY    81  77  89 S9        29.79
POHNPEI WSO    CLOUDY    81  73  78 E14       29.73F
KOSRAE AP      NOT AVBL

$$

PMZ181-270500-
REPUBLIC OF THE MARSHALL ISLANDS-

CITY           SKY/WX    TMP DP  RH WIND       PRES   REMARKS
KWAJALEIN AP   MOSUNNY   88  73  62 NE15      29.70S HX  96
MAJURO AP      NOT AVBL
MAJURO WSO     PTSUNNY   81  77  89 NE21      29.68R

$$



USA.gov is the U.S. government's official web portal to all federal, state and local government web resources and services.